Hourly Data Report for March 17, 2017

MIRAMICHI RCS
NEW BRUNSWICK

47°00'34.000" N
65°27'54.000" W
33.00 m
8100989
71744
ACQ

Download Data

Hourly Data (March 2017)
Hourly Data Report for March 17, 2017
TIME
LST
Temp Definition
°C
Dew Point Definition
°C
Rel Hum Definition
%
Precip. Amount Definition
mm

Wind Dir Definition
10's deg

Wind Spd Definition
km/h
Visibility Definition
km
Stn Press Definition
kPa
Hmdx Definition


Wind Chill Definition


Weather Definition


00:00 -6.7 -11.0 71 0.0 27 8   100.37   -11 LegendNANA
01:00 -7.2 -11.5 72 0.0 26 9   100.42   -12 LegendNANA
02:00 -7.9 -11.7 74 0.0 25 9   100.45   -12 LegendNANA
03:00 -9.2 -12.2 78 0.0 26 9   100.45   -14 LegendNANA
04:00 -9.9 -12.8 79 0.2 28 7   100.49   -14 LegendNANA
05:00 -10.9 -13.3 83 0.0 25 8   100.52   -16 LegendNANA
06:00 -11.1 -13.5 83 0.0 25 8   100.58   -16 LegendNANA
07:00 -11.3 -14.0 80 0.0 26 7   100.66   -16 LegendNANA
08:00 -9.2 -13.3 72 0.0 24 6   100.75   -13 LegendNANA
09:00 -6.5 -12.1 64 0.0 30 6   100.81   -9 LegendNANA
10:00 -4.9 -9.9 68 0.0 35 6   100.87   -8 LegendNANA
11:00 -3.2 -10.0 59 0.0 36 9   100.90   -7 LegendNANA
12:00 -2.3 -10.0 56 0.0 36 7   100.92   -5 LegendNANA
13:00 -2.1 -10.5 53 0.0 36 11   100.96   -6 LegendNANA
14:00 -1.6 -11.0 49 0.0 34 10   101.00   -5 LegendNANA
15:00 -1.4 -10.5 50 0.0 35 6   101.05   -4 LegendNANA
16:00 -1.8 -9.5 56 0.0 35 10   101.11   -5 LegendNANA
17:00 -1.8 -9.8 54 0.0 32 9   101.17   -5 LegendNANA
18:00 -1.8 -10.9 50 0.0 33 8   101.25   -5 LegendNANA
19:00 -2.3 -9.7 56 0.0 36 5   101.33   -4 LegendNANA
20:00 -3.5 -7.9 72 0.0 4 5   101.43   -6 LegendNANA
21:00 -3.8 -7.6 75 0.0 3 2   101.50   -5 LegendNANA
22:00 -4.2 -6.4 85 0.0 30 4   101.57   -6 LegendNANA
23:00 -4.0 -7.8 75 0.0 32 8   101.63   -7 LegendNANA

Notes on Data Quality.

Legend

  • E = Estimated
  • M = Missing
  • NA = Not Available*
  • [empty] = Indicates an unobserved value
Date modified: